Location: Cape Cod Imaging Station
(41.7417°N, 70.1583°W)
Time: 00:56:19
(UTC-04:00)

OTV 5 (USA 277) - Visible Passes

Search period start: 21 October 2017 00:00
Search period end: 31 October 2017 00:00
Orbit: 404 x 417 km, 43.0° (Epoch: 07 September)

Date Brightness Start Highest point End Pass type
(mag) Time Alt. Az. Time Alt. Az. Time Alt. Az.
21 Oct ? 18:30:40 10° W 18:34:01 64° SSW 18:37:21 10° ESE visible
21 Oct ? 20:08:47 10° WSW 20:10:11 15° SW 20:10:11 15° SW visible
22 Oct ? 19:17:16 10° W 19:20:00 23° SSW 19:21:50 15° SSE visible
23 Oct ? 18:25:58 10° W 18:29:03 33° SSW 18:32:07 10° SE visible
24 Oct ? 19:14:14 10° SW 19:14:49 10° SW 19:15:24 10° SSW visible
25 Oct ? 18:21:49 10° WSW 18:23:57 16° SW 18:26:03 10° S visible
